Regional Weather Roundup
Issued by NWS

Home | Current Version | Previous Version | Text Only | Print | Product List | Glossary On
Versions: 1 2 3 4 5 6 7 8 9 10 11 12 13 14 15 16 17 18 19 20 21 22 23 24 25 26 27 28 29 30 31 32 33 34 35 36 37 38 39 40 41 42 43 44 45 46 47 48 49 50
000
ASUS46 KSTO 080215
RWRCA

NORTHERN AND CENTRAL CA REGIONAL WEATHER ROUNDUP
NATIONAL WEATHER SERVICE SACRAMENTO CA
600 PM PST WED DEC 07 2016

NOTE: FAIR INDICATES FEW OR NO CLOUDS BELOW 12,000 FEET WITH NO
SIGNIFICANT WEATHER AND/OR OBSTRUCTIONS TO VISIBILITY.

CAZ001-003-080300-
NORTHWEST AREA

CITY           SKY/WX    TMP DP  RH WIND       PRES   REMARKS
CRESCENT CITY  CLOUDY    41  32  70 E9        30.01F
UKIAH          RAIN      41  38  89 S8        30.08R FOG
$$

CAZ006-505>513-080300-
BAY AREA

CITY           SKY/WX    TMP DP  RH WIND       PRES   REMARKS
SANTA ROSA     LGT RAIN  44  41  89 SW5       30.11R
SAN RAFAEL     N/A       47  MM  MM MISG
NAPA           LGT RAIN  45  36  70 E15       30.13R
CONCORD        CLOUDY    47  33  58 NE7       30.15R
OAKLAND CITY   N/A       49  MM  MM MISG
OAKLAND        CLOUDY    49  38  65 NE7       30.11S
SAN FRAN CITY  N/A       50  MM  60 MISG
SAN FRAN ARPT  CLOUDY    50  39  66 SE7       30.11S
LIVERMORE      CLOUDY    44  36  73 NE8       30.11S
HAYWARD        CLOUDY    48  35  60 NE10      30.11S
REDWOOD CITY   N/A       49  MM  74 MISG
MOFFETT ARPT   CLOUDY    51  39  63 SE3       30.11F
SAN JOSE ARPT  CLOUDY    54  36  50 SE9       30.11F
$$
CAZ034-037-514>518-080300-
CENTRAL COAST

CITY           SKY/WX    TMP DP  RH WIND       PRES   REMARKS
WATSONVILLE    CLOUDY    50  43  77 NE3       30.13S
SALINAS        CLOUDY    52  40  63 CALM      30.13S
MONTEREY       LGT RAIN  51  43  74 CALM      30.13S
SAN LUIS OBISP MOCLDY    53  40  61 NW6       30.13R
SANTA MARIA    MOCLDY    49  43  80 NW6       30.14R
$$
CAZ015-016-080300-
NORTHERN SACRAMENTO VALLEY

CITY           SKY/WX    TMP DP  RH WIND       PRES   REMARKS
REDDING        RAIN      37  35  92 N8        30.20S WCI  31
RED BLUFF      LGT RAIN  37  35  92 NW7       30.22S WCI  32
OROVILLE       LGT RAIN  42  36  79 N7        30.19S
$$
CAZ016>018-080300-
SOUTHERN SACRAMENTO VALLEY

CITY           SKY/WX    TMP DP  RH WIND       PRES   REMARKS
AUBURN         CLOUDY    43  37  81 CALM      30.14S
BEALE AFB      CLOUDY    42  38  83 CALM      30.15S
LINCOLN        CLOUDY    43  37  81 N7        30.16S
MARYSVILLE     CLOUDY    44  34  67 NW5       30.18S
PLACERVILLE    CLOUDY    39  32  75 NW3       30.12R
SAC INTL ARPT  CLOUDY    42  39  89 N3        30.15F
MATHER AIRPORT CLOUDY    45  37  76 NW3       30.17R
DOWNTOWN SAC   N/A       45  MM  MM MISG
SAC EXEC ARPT  LGT RAIN  44  40  85 NW6       30.17R
VACAVILLE      LGT RAIN  44  37  76 NE5       30.17S
TRAVIS AFB     LGT RAIN  43  37  77 NE9       30.14S
$$
CAZ019>021-080300-
SAN JOAQUIN VALLEY

CITY           SKY/WX    TMP DP  RH WIND       PRES   REMARKS
STOCKTON       CLOUDY    47  41  80 CALM      30.14S
MODESTO        LGT RAIN  49  41  74 S6        30.14F
MERCED         CLOUDY    47  41  80 SW3       30.15F
LEMOORE        LGT RAIN  49  39  68 S3        30.17F
FRESNO         CLOUDY    49  40  71 SE3       30.16F
HANFORD        CLOUDY    48  43  82 CALM      30.18S
PORTERVILLE    CLEAR     47  40  76 CALM      30.18S
BAKERSFIELD    CLEAR     49  38  65 N5        30.17S
$$
CAZ011-012-071-080300-
NORTHERN MOUNTAINS

CITY           SKY/WX    TMP DP  RH WIND       PRES   REMARKS
YREKA          SNOW      26  23  88 CALM      30.13R VSB 1/2
MOUNT SHASTA   HVY SNOW  28  26  92 CALM      30.08F VSB 1/4
ALTURAS        CLOUDY    27  17  66 E3        30.07F
$$
CAZ011-012-071-080300-
SIERRA NEVADA MTNS

CITY           SKY/WX    TMP DP  RH WIND       PRES   REMARKS
BLUE CANYON    LGT SNOW  29  26  89 VRB6      30.06F FOG     WCI  23
TRUCKEE        LGT SNOW  27  23  86 CALM      30.07S VSB 3/4
TAHOE VLY ARPT LGT SNOW  33  23  66 VRB5      30.05R WCI  29
MAMMOTH LAKES  CLOUDY    29   8  40 E12       30.10S WCI  19
$$




USA.gov is the U.S. government's official web portal to all federal, state and local government web resources and services.